Chanute, KS

9:06 PM CST on February 20, 2017 (GMT -0600)
Chanute Martin Johnson

Weather History for KCNU - October, 2012

Change the Weather History Date:

Monday, October 8, 2012

  Actual Average Record
Temperature  
Mean Temperature 47 °F 61 °F  
Max Temperature 63 °F 72 °F 95 °F (1979)
Min Temperature 31 °F 50 °F 25 °F (2000)
Degree Days  
Heating Degree Days 18 6  
Month to date heating degree days 94 40  
Since 1 July heating degree days 116 87  
Cooling Degree Days 0 2  
Month to date cooling degree days 3 16  
Year to date cooling degree days 1962 1513  
Moisture  
Dew Point 33 °F    
Average Humidity 63    
Maximum Humidity 92    
Minimum Humidity 34    
Precipitation  
Precipitation 0.00 in 0.13 in 3.52 in (2009)
Month to date precipitation 0.06 1.14  
Year to date precipitation 28.23 35.30  
Sea Level Pressure  
Sea Level Pressure 30.11 in    
Wind  
Wind Speed 10 mph (South)    
Max Wind Speed 21 mph    
Max Gust Speed 29 mph    
Visibility 10 miles    
Events      
T = Trace of Precipitation, MM = Missing Value Source: NWS Daily Summary

Daily Weather History Graph

Daily Weather History Graph

Search for Another Location

Airport or City:

Trip Planner

Search our weather history database for the weather conditions in past years. The results will help you decide how hot, cold, wet, or windy it might be!

Date:

Astronomy

Oct. 08, 2012 Rise Set
Actual Time 7:24 AM CDT 6:53 PM CDT
Civil Twilight 6:57 AM CDT 7:20 PM CDT
Nautical Twilight 6:27 AM CDT 7:50 PM CDT
Astronomical Twilight 5:57 AM CDT 8:20 PM CDT
Moon 12:12 AM CDT (10/8) 2:37 PM CDT (10/8)
Length of Visible Light 12h 22m
Length of Day
11h 29m
Last Quarter, 46% of the Moon is Illuminated
Oct 8
Last Quarter
Oct 15
New
Oct 21
First Quarter
Oct 29
Full
Nov 6
Last Quarter

Hourly Weather History & Observations

Time (CDT) Temp. Windchill Dew Point Humidity Pressure Visibility Wind Dir Wind Speed Gust Speed Precip Events Conditions
12:52 AM 39.0 °F 32.8 °F 28.9 °F 67% 30.19 in 10.0 mi SSW 9.2 mph - N/A   Clear
1:52 AM 37.0 °F 31.6 °F 30.0 °F 76% 30.20 in 10.0 mi SSW 6.9 mph - N/A   Clear
2:52 AM 35.1 °F 31.0 °F 30.0 °F 82% 30.19 in 10.0 mi SSW 4.6 mph - N/A   Clear
3:52 AM 34.0 °F 28.8 °F 30.0 °F 85% 30.18 in 10.0 mi South 5.8 mph - N/A   Clear
4:52 AM 33.1 °F 27.7 °F 28.9 °F 85% 30.18 in 10.0 mi South 5.8 mph - N/A   Clear
5:52 AM 33.1 °F 27.7 °F 30.0 °F 89% 30.18 in 10.0 mi South 5.8 mph - N/A   Clear
6:52 AM 32.0 °F 26.4 °F 30.0 °F 92% 30.19 in 10.0 mi South 5.8 mph - N/A   Clear
7:52 AM 32.0 °F 28.7 °F 30.0 °F 92% 30.19 in 10.0 mi SE 3.5 mph - N/A   Clear
8:52 AM 39.9 °F 33.4 °F 34.0 °F 79% 30.19 in 10.0 mi SSW 10.4 mph - N/A   Clear
9:52 AM 46.0 °F 41.4 °F 34.0 °F 63% 30.19 in 10.0 mi SSW 9.2 mph - N/A   Clear
10:52 AM 51.1 °F - 34.0 °F 52% 30.18 in 10.0 mi SSW 11.5 mph - N/A   Clear
11:52 AM 54.0 °F - 34.0 °F 47% 30.17 in 10.0 mi SSW 16.1 mph - N/A   Clear
12:52 PM 57.0 °F - 34.0 °F 42% 30.14 in 10.0 mi South 16.1 mph 23.0 mph N/A   Clear
1:52 PM 59.0 °F - 34.0 °F 39% 30.09 in 10.0 mi South 15.0 mph 21.9 mph N/A   Clear
2:52 PM 62.1 °F - 34.0 °F 35% 30.06 in 10.0 mi South 16.1 mph 23.0 mph N/A   Clear
3:52 PM 63.0 °F - 34.0 °F 34% 30.04 in 10.0 mi South 13.8 mph - N/A   Clear
4:52 PM 62.1 °F - 34.0 °F 35% 30.02 in 10.0 mi SSW 13.8 mph - N/A   Clear
5:52 PM 60.1 °F - 35.1 °F 39% 30.01 in 10.0 mi South 15.0 mph - N/A   Clear
6:52 PM 55.4 °F - 35.6 °F 47% 30.00 in 10.0 mi South 11.5 mph - N/A   Clear
7:52 PM 50.0 °F - 37.0 °F 61% 30.02 in 10.0 mi SSE 6.9 mph - N/A   Clear
8:52 PM 48.9 °F - 37.9 °F 66% 30.03 in 10.0 mi South 9.2 mph - N/A   Clear
9:52 PM 45.0 °F 41.2 °F 37.9 °F 76% 30.04 in 10.0 mi SSE 6.9 mph - N/A   Clear
10:52 PM 45.0 °F 40.6 °F 37.0 °F 74% 30.03 in 10.0 mi South 8.1 mph - N/A   Clear
11:52 PM 46.9 °F - 37.9 °F 71% 30.03 in 10.0 mi South 8.1 mph - N/A   Clear